Reaktor Hello World (43743 NORAD) Tracking and Keplerian Element Data

This shows tracking and keplerian element data for the satellite.

Feedback or suggestion? Click here.




ElementValue
Catalog43743
NameReaktor Hello World
Epoch Orbit2144
Epoch Day108.80977539
Epoch Year2019
RAAN178.8649
Inclination97.4643
Eccentricity0.0018109
Argument of Perigee185.1559
Mean Anonmoly285.2347
Mean Motion15.26454121
Decay Rate1.34E-05
L11 43743U 18096AA 19108.80977539 .00001340 00000-0 54069-4 0 9998
L22 43743 97.4643 178.8649 0018109 185.1559 285.2347 15.26454121 21445

Live tracking and technical data element details for Reaktor Hello World (NORAD 43743). Reaktor Hello World can be tracked NOW for your location showing map with azimuth and elevation plus other details from your city location.

Track the satellite on the map from your city or location and see movement details for azimuth, elevation, latitude, longitude, range, height, and movement on the map or in text.







IsCatalogInMostPopularTable: catalog: 43743, numindb: 146
Update: records affected: 1



GetName: 43743 Reaktor Hello World

Hit Count: updated at: Wed, 24 Apr 2019 18:43:59 GMT